STARLINK-37728, 69221

Orbit data source: Space-Track

STARLINK-37728, 69221 is a payload satellite owned by SpaceX/Seattle (US) in SSO that was launched on Tue, 26 May 2026 UTC via an FALCON 9 launch vehicle from the Air Force Western Test Range (AFWTR). Payload-class satellites include a variety of spacecraft equipped with specific instruments for various scientific and technological missions. These include communications satellites like Starlink; space stations such as the ISS; scientific satellites like the Hubble; Earth observation satellites from companies like Planet Labs, Umbra, and HawkEye 360; GPS; miniature CubeSats for education and research; and military/defense satellites.

Loading next visibility...
Identifier
69221, 2026-115L
Orbit
SSO
Country
Flag of USUS
Related business
Manufacturer
SpaceX/Seattle
Mission
Operational spacecraft
Bus & Motor
STARLINK V2MO, Unknown motor
Mass
575 kg wet, ~530 kg dry
Launch date (UTC)
2026-05-26 (4 weeks ago)
Launch vehicle
FALCON 9
Launch site
Air Force Western Test Range (AFWTR)
Object type
Payload
Rocket body
Debris
Shape & HBR
Unknown
Radar Cross Section
Large (>1 m²)

Expand to show TLE details & history
Last TLE update: 12 hours ago

TLE from 12 hours ago
0 STARLINK-37728
1 69221U 26115L   26171.41668980 -.02260725  00000-0 -65087-1 0  9997
2 69221  97.2854 188.8229 0001879  73.4554  97.4695 15.39180801  5201
Epoch: 2026-06-20T10:00Z
TLE epoch observation values (Epoch: 2026-06-20T10:00:01.998Z)
Latitude
8.91484°
Longitude
-48.67435°
Altitude
451.098 km
Speed
7.642 km/s
True Right ascension
00h 39m 51s
True Declination
8° 51' 36"
Sunlit
Object was in daylight at epoch
Visualization orbit readout
Latitude
Unknown
Longitude
Unknown
Altitude
Unknown
Speed
Unknown
Apparent Right ascension
Unknown
Apparent Declination
Unknown
Sunlit
N/A
Visualization observer readout
Local Sidereal Time
08:32:56
Azimuth
Unknown
Elevation
Unknown
Doppler factor
Unknown
Orbital elements
Apogee altitude
446.748 km
Perigee altitude
444.183 km
Semi-major axis
6,823.603 km
Eccentricity
0.00019
Inclination
97.2854°
RAAN
188.8229°
Arg. of periapsis
73.4554°
True anomaly
97.49085°
Mean anomaly
97.4695°
Eccentric anomaly
97.48017°
Mean motion
3.85055 °/min
Orbital period
93.49 mins
BSTAR
-0.065087
Loading maneuver chart data...
Computing Atmospheric mass density...
Loading historical data...
Loading historical data...
Loading historical data...
Loading historical data...
Loading historical data...
Loading historical data...
Loading historical data...

Documentation

Showing up to 5 results
|